LEOIR Weather Reports


time (UTC)temp
F
wind
direction
speed
knots
gust
knots
rain 1hr
in
rain 24hr
in
rain mn
in
humidity
%
barometer
mb
20260505063101 68 354 0.0 0.0 0.00 0.00 0.00 44 1008.9
20260505061600 67 12 0.0 0.0 0.00 0.00 0.00 45 1009.0
20260505060046 65 94 0.0 0.0 0.00 0.00 0.00 47 1009.1
20260505054542 63 36 0.0 0.0 0.00 0.00 0.00 50 1009.1
20260505053037 61 37 0.0 0.0 0.00 0.00 0.00 52 1009.2
20260505051536 60 37 0.0 0.0 0.00 0.00 0.00 53 1009.2
20260505041530 55 40 0.0 0.0 0.00 0.00 0.00 58 1009.2
20260505040011 54 40 0.0 0.0 0.00 0.00 0.00 60 1009.3
20260505034509 53 41 0.0 0.0 0.00 0.00 0.00 61 1009.4
20260505033002 52 41 0.0 0.0 0.00 0.00 0.00 63 1009.4
20260505031601 51 41 0.0 0.0 0.00 0.00 0.00 64 1009.4
20260505030057 51 41 0.0 0.0 0.00 0.00 0.00 63 1009.5
20260505024555 52 42 0.0 0.0 0.00 0.00 0.00 62 1009.4
20260505023054 52 42 0.0 0.0 0.00 0.00 0.00 61 1009.4
20260505021550 52 42 0.0 0.0 0.00 0.00 0.00 61 1009.4
20260505020048 53 42 0.0 0.0 0.00 0.00 0.00 60 1009.4
20260505014602 53 42 0.0 0.0 0.00 0.00 0.00 59 1009.6
20260505013044 53 42 0.0 0.0 0.00 0.00 0.00 59 1009.5
20260505011541 53 42 0.0 0.0 0.00 0.00 0.00 58 1009.6
20260505010038 54 42 0.0 0.0 0.00 0.00 0.00 58 1009.6
20260505004539 55 42 0.0 0.0 0.00 0.00 0.00 56 1009.6
20260505003032 55 42 0.0 0.0 0.00 0.00 0.00 55 1009.6
20260505001529 56 42 0.0 0.0 0.00 0.00 0.00 53 1009.7
20260505000031 56 42 0.0 0.0 0.00 0.00 0.00 53 1009.7
20260504234523 57 42 0.0 0.0 0.00 0.00 0.00 52 1009.7
20260504233020 58 42 0.0 0.0 0.00 0.00 0.00 51 1009.8
20260504231516 58 42 0.0 0.0 0.00 0.00 0.00 49 1009.8
20260504230017 59 42 0.0 0.0 0.00 0.00 0.00 47 1009.9
20260504224511 60 42 0.0 0.0 0.00 0.00 0.00 47 1009.9
20260504223008 60 42 0.0 0.0 0.00 0.00 0.00 46 1010.0
20260504221505 60 42 0.0 0.0 0.00 0.00 0.00 46 1009.9
20260504220003 61 42 0.0 0.0 0.00 0.00 0.00 45 1010.0
20260504214502 61 42 0.0 0.0 0.00 0.00 0.00 44 1010.1
20260504213003 61 42 0.0 0.0 0.00 0.00 0.00 44 1010.1
20260504211506 60 42 0.0 0.0 0.00 0.00 0.00 44 1010.0
20260504210100 61 42 0.0 0.0 0.00 0.00 0.00 44 1010.0
20260504204603 62 42 0.0 0.0 0.00 0.00 0.00 42 1009.9
20260504203121 62 42 0.0 0.0 0.00 0.00 0.00 42 1010.0
20260504201558 64 42 0.0 0.0 0.00 0.00 0.00 39 1009.9
20260504200058 65 42 0.0 0.0 0.00 0.00 0.00 36 1009.8
20260504194606 66 42 0.0 0.0 0.00 0.00 0.00 35 1009.8
20260504193109 67 42 0.0 0.9 0.00 0.00 0.00 34 1009.9
20260504191556 68 42 0.0 0.9 0.00 0.00 0.00 33 1009.9
20260504190116 69 42 0.0 0.0 0.00 0.00 0.00 31 1009.8
20260504184606 70 42 0.0 0.0 0.00 0.00 0.00 30 1009.7
20260504183054 72 42 0.0 0.0 0.00 0.00 0.00 28 1009.6
20260504181554 73 42 0.0 0.9 0.00 0.00 0.00 26 1009.5
20260504180053 74 42 0.0 0.9 0.00 0.00 0.00 25 1009.4
20260504174601 75 42 0.0 0.9 0.00 0.00 0.00 24 1009.3
20260504173056 76 42 0.0 0.9 0.00 0.00 0.00 23 1009.3
20260504171551 77 42 0.0 0.0 0.00 0.00 0.00 22 1009.1
20260504090116 77 65 0.0 2.6 0.00 0.00 0.00 31 1013.0
20260504081540 76 86 0.0 4.3 0.00 0.00 0.00 31 1013.1